OZ1IEP-5 Weather Reports


time (UTC)temp
C
wind
direction
speed
KPH
gust
KPH
rain 1hr
cm
rain 24hr
cm
rain mn
cm
humidity
%
barometer
mb
20260506191005 8 143 0.0 1.6 0.00 0.00 0.00 68 1010.8
20260506190018 8 146 0.0 3.2 0.00 0.00 0.00 66 1010.7
20260506185005 9 143 0.0 3.2 0.00 0.00 0.00 64 1010.5
20260506184006 10 153 0.0 4.8 0.00 0.00 0.00 63 1010.4
20260506183008 10 141 3.2 11.3 0.00 0.00 0.00 61 1010.3
20260506182005 10 151 1.6 14.5 0.00 0.00 0.00 59 1010.2
20260506181005 10 156 3.2 9.7 0.00 0.00 0.00 58 1010.0
20260506180007 11 152 1.6 11.3 0.00 0.00 0.00 56 1009.9
20260506175005 11 149 1.6 9.7 0.00 0.00 0.00 55 1009.9
20260506174006 11 151 1.6 11.3 0.00 0.00 0.00 54 1009.9
20260506173008 11 154 4.8 11.3 0.00 0.00 0.00 53 1009.8
20260506172006 11 152 1.6 14.5 0.00 0.00 0.00 53 1009.8
20260506171006 11 144 3.2 12.9 0.00 0.00 0.00 51 1009.6
20260506170007 11 154 3.2 19.3 0.00 0.00 0.00 51 1009.6
20260506165006 11 167 3.2 11.3 0.00 0.00 0.00 51 1009.6
20260506164006 11 162 1.6 9.7 0.00 0.00 0.00 51 1009.7
20260506163009 11 182 0.0 11.3 0.00 0.00 0.00 52 1009.5
20260506162005 11 152 0.0 19.3 0.00 0.00 0.00 51 1009.4
20260506161005 11 158 0.0 4.8 0.00 0.00 0.00 52 1009.4
20260506160008 11 174 0.0 11.3 0.00 0.00 0.00 51 1009.4
20260506155005 11 160 1.6 19.3 0.00 0.00 0.00 52 1009.4
20260506154006 11 161 3.2 14.5 0.00 0.00 0.00 52 1009.4
20260506153008 11 178 1.6 19.3 0.00 0.00 0.00 51 1009.4
20260506152006 12 155 0.0 19.3 0.00 0.00 0.00 54 1009.4
20260506151006 12 164 3.2 19.3 0.00 0.00 0.00 57 1009.3
20260506150007 12 156 1.6 14.5 0.00 0.00 0.00 59 1009.3
20260506145006 12 148 8.0 19.3 0.00 0.00 0.00 58 1009.3
20260506144005 13 140 8.0 20.9 0.00 0.00 0.00 59 1009.2
20260506143007 13 119 1.6 4.8 0.00 0.00 0.00 57 1009.1
20260506142005 13 190 0.0 0.0 0.00 0.00 0.00 61 1009.0
20260506141006 13 300 0.0 4.8 0.00 0.00 0.00 62 1009.0
20260506140008 13 96 0.0 0.0 0.00 0.00 0.00 57 1009.0
20260506135005 13 109 0.0 1.6 0.00 0.00 0.00 60 1008.8
20260506134005 13 40 0.0 11.3 0.00 0.00 0.00 59 1008.8
20260506133007 13 53 1.6 11.3 0.00 0.00 0.00 56 1008.8
20260506132005 13 45 0.0 1.6 0.00 0.00 0.00 58 1008.7
20260506131006 12 45 0.0 4.8 0.00 0.00 0.00 61 1008.8
20260506130007 12 0 1.6 11.3 0.00 0.00 0.00 61 1008.8
20260506125005 12 37 0.0 8.0 0.00 0.00 0.00 59 1008.7
20260506124006 12 12 4.8 19.3 0.00 0.00 0.00 59 1008.7
20260506123008 13 8 1.6 19.3 0.00 0.00 0.00 56 1008.5
20260506122006 14 348 9.7 19.3 0.00 0.00 0.00 58 1008.4
20260506121005 14 2 1.6 19.3 0.00 0.00 0.00 57 1008.5
20260506120008 14 4 6.4 19.3 0.00 0.00 0.00 57 1008.5
20260506115006 13 358 4.8 24.1 0.00 0.00 0.00 55 1008.6
20260506114005 13 4 3.2 19.3 0.00 0.00 0.00 55 1008.7
20260506113008 13 0 9.7 19.3 0.00 0.00 0.00 56 1008.7
20260506112006 13 22 3.2 19.3 0.00 0.00 0.00 56 1008.8
20260506111005 13 4 4.8 22.5 0.00 0.00 0.00 57 1008.7
20260506110007 13 359 8.0 20.9 0.00 0.00 0.00 57 1008.7
20260506105005 13 342 4.8 19.3 0.00 0.00 0.00 59 1008.8
20260506104005 13 352 3.2 16.1 0.00 0.00 0.00 56 1008.8
20260506103008 13 1 4.8 16.1 0.00 0.00 0.00 54 1008.8
20260506102005 13 355 4.8 16.1 0.00 0.00 0.00 53 1008.8
20260506101005 13 359 1.6 14.5 0.00 0.00 0.00 50 1008.8
20260506100007 12 16 4.8 19.3 0.00 0.00 0.00 46 1008.8
20260506095006 12 1 1.6 19.3 0.00 0.00 0.00 47 1008.8
20260506094006 12 0 4.8 20.9 0.00 0.00 0.00 48 1008.8
20260506093007 12 6 4.8 16.1 0.00 0.00 0.00 49 1008.8
20260506092006 12 354 4.8 16.1 0.00 0.00 0.00 50 1008.8
20260506091005 12 2 3.2 12.9 0.00 0.00 0.00 52 1008.8
20260506090007 12 352 4.8 16.1 0.00 0.00 0.00 49 1008.8
20260506085006 12 351 4.8 12.9 0.00 0.00 0.00 50 1008.8
20260506084005 11 358 3.2 19.3 0.00 0.00 0.00 53 1008.9
20260506083008 11 358 4.8 16.1 0.00 0.00 0.00 53 1008.8
20260506082005 11 353 4.8 14.5 0.00 0.00 0.00 52 1008.8
20260506081006 11 9 3.2 9.7 0.00 0.00 0.00 54 1008.8
20260506073008 10 0 1.6 8.0 0.00 0.00 0.00 57 1008.8
20260506072006 9 34 1.6 9.7 0.00 0.00 0.00 56 1008.8
20260506071006 9 23 3.2 8.0 0.00 0.00 0.00 57 1008.8
20260506062006 8 30 1.6 14.5 0.00 0.00 0.00 57 1008.9
20260506061005 8 20 1.6 16.1 0.00 0.00 0.00 56 1009.0
20260506051005 7 39 1.6 11.3 0.00 0.00 0.00 58 1009.3
20260506045005 7 46 0.0 1.6 0.00 0.00 0.00 63 1009.3
20260506044005 7 13 0.0 1.6 0.00 0.00 0.00 62 1009.3
20260506043007 7 28 0.0 1.6 0.00 0.00 0.00 62 1009.3
20260506042006 7 8 0.0 9.7 0.00 0.00 0.00 62 1009.3
20260506041008 7 6 0.0 4.8 0.00 0.00 0.00 61 1009.3
20260506040010 7 21 0.0 8.0 0.00 0.00 0.00 60 1009.3
20260506035008 6 30 0.0 4.8 0.00 0.00 0.00 61 1009.3
20260506034006 6 19 0.0 4.8 0.00 0.00 0.00 63 1009.3
20260506033009 6 49 0.0 8.0 0.00 0.00 0.00 62 1009.3
20260506032006 6 28 1.6 8.0 0.00 0.00 0.00 62 1009.3
20260506031006 6 37 0.0 11.3 0.00 0.00 0.00 62 1009.3
20260506030008 6 26 0.0 11.3 0.00 0.00 0.00 62 1009.3
20260506025005 6 27 0.0 3.2 0.00 0.00 0.00 62 1009.3
20260506024006 6 38 0.0 9.7 0.00 0.00 0.00 61 1009.5
20260506023008 6 45 0.0 4.8 0.00 0.00 0.00 63 1009.5
20260506022006 7 51 0.0 9.7 0.00 0.00 0.00 62 1009.6
20260506021006 7 42 0.0 3.2 0.00 0.00 0.00 62 1009.8
20260506020008 7 46 0.0 4.8 0.00 0.00 0.00 63 1009.8
20260506015005 7 45 0.0 4.8 0.00 0.00 0.00 65 1009.8
20260506014006 7 33 0.0 8.0 0.00 0.00 0.00 66 1009.8
20260506013008 7 29 0.0 8.0 0.00 0.00 0.00 68 1009.6
20260506012005 7 29 0.0 4.8 0.00 0.00 0.00 70 1009.6
20260506011006 7 31 0.0 8.0 0.00 0.00 0.00 72 1009.7
20260506010008 7 33 0.0 8.0 0.00 0.00 0.00 74 1009.6
20260506005006 7 33 0.0 8.0 0.00 0.00 0.00 76 1009.6
20260506004005 7 9 0.0 9.7 0.00 0.00 0.00 77 1009.4
20260506003008 7 2 0.0 3.2 0.00 0.00 0.00 77 1009.4
20260506002006 7 32 0.0 9.7 0.00 0.00 0.00 78 1009.4
20260506001006 7 9 0.0 11.3 0.00 0.00 0.00 78 1009.3
20260506000008 7 1 1.6 11.3 0.00 0.00 0.00 79 1009.3
20260505235006 7 358 1.6 9.7 0.00 0.00 0.00 79 1009.3
20260505234005 7 12 3.2 14.5 0.00 0.00 0.00 80 1009.3
20260505233008 7 2 1.6 11.3 0.00 0.00 0.00 81 1009.4
20260505232005 7 9 0.0 11.3 0.00 0.00 0.00 81 1009.4
20260505231005 7 8 1.6 11.3 0.00 0.00 0.00 82 1009.4
20260505230007 7 22 1.6 16.1 0.00 0.00 0.00 82 1009.4
20260505225006 7 23 1.6 16.1 0.00 0.00 0.00 82 1009.5
20260505224006 7 13 1.6 9.7 0.00 0.00 0.00 81 1009.6
20260505223008 7 8 1.6 4.8 0.00 0.00 0.00 81 1009.7
20260505222005 7 21 1.6 8.0 0.00 0.00 0.00 81 1009.8
20260505221005 7 7 3.2 11.3 0.00 0.00 0.00 81 1009.8
20260505220009 7 9 3.2 11.3 0.00 0.00 0.00 81 1009.8
20260505215006 7 4 4.8 14.5 0.00 0.00 0.00 80 1009.9
20260505214005 7 1 4.8 11.3 0.00 0.00 0.00 80 1009.9
20260505213009 7 9 4.8 14.5 0.00 0.00 0.00 79 1009.8
20260505212005 7 11 3.2 8.0 0.00 0.00 0.00 78 1009.9
20260505211006 7 10 1.6 8.0 0.00 0.00 0.00 77 1009.9
20260505210008 7 23 1.6 3.2 0.00 0.00 0.00 75 1009.9
20260505205005 7 13 0.0 4.8 0.00 0.00 0.00 74 1010.0
20260505204006 7 16 0.0 4.8 0.00 0.00 0.00 73 1009.9
20260505203008 7 10 1.6 8.0 0.00 0.00 0.00 72 1009.9
20260505202005 7 11 3.2 8.0 0.00 0.00 0.00 72 1009.9
20260505201006 7 8 3.2 9.7 0.00 0.00 0.00 70 1009.9
20260505200008 7 3 4.8 11.3 0.00 0.00 0.00 69 1009.8
20260505195005 7 11 1.6 9.7 0.00 0.00 0.00 67 1009.9
20260505194005 7 4 3.2 11.3 0.00 0.00 0.00 64 1009.9
20260505193009 7 357 4.8 11.3 0.00 0.00 0.00 62 1009.9
20260505192005 7 0 4.8 14.5 0.00 0.00 0.00 59 1009.9